Weather History for Shreveport Downtown, LA

Change the Weather History Date:

Thursday, January 31, 2013

  Actual Average (KSHV) Record (KSHV)
Temperature  
Mean Temperature 48 °F 48 °F  
Max Temperature 62 °F 59 °F 83 °F (1911)
Min Temperature 35 °F 37 °F 8 °F (1949)
Degree Days  
Heating Degree Days 16 17  
Month to date heating degree days 573  
Since 1 July heating degree days 1472  
Cooling Degree Days 0 0  
Month to date cooling degree days 4  
Year to date cooling degree days 4  
Moisture  
Dew Point 26 °F    
Average Humidity 46    
Maximum Humidity 73    
Minimum Humidity 22    
Precipitation  
Precipitation 0.00 in 0.15 in 4.12 in (1896)
Month to date precipitation 4.20  
Year to date precipitation 4.20  
Snow  
Snow 0.00 in - - ()
Month to date snowfall  
Since 1 July snowfall  
Snow Depth -    
Sea Level Pressure  
Sea Level Pressure 30.21 in    
Wind  
Wind Speed 6 mph (SW)    
Max Wind Speed 14 mph    
Max Gust Speed 17 mph    
Visibility 10 miles    
Events      
T = Trace of Precipitation, MM = Missing Value Source: NWS Daily Summary

Daily Weather History Graph

Daily Weather History Graph

Search for Another Location

Airport:

Trip Planner

Search our weather history database for the weather conditions in past years. The results will help you decide how hot, cold, wet, or windy it might be!

Date:

Astronomy

Jan. 31, 2013 Rise Set
Actual Time 7:09 AM CST 5:47 PM CST
Civil Twilight 6:44 AM CST 6:13 PM CST
Nautical Twilight 6:14 AM CST 6:42 PM CST
Astronomical Twilight 5:45 AM CST 7:11 PM CST
Moon 10:29 PM CST (1/31) 9:28 AM CST (1/31)
Length of Visible Light 11h 29m
Length of Day
10h 37m
Waning Gibbous, 79% of the Moon is Illuminated
Jan 31
Waning Gibbous
Feb 3
Last Quarter
Feb 10
New
Feb 17
First Quarter
Feb 25
Full

Hourly Weather History & Observations

Time (CST) Temp. Windchill Dew Point Humidity Pressure Visibility Wind Dir Wind Speed Gust Speed Precip Events Conditions
12:53 AM 36.0 °F - 28.0 °F 73% 30.15 in 10.0 mi Calm Calm - N/A   Clear
1:53 AM 36.0 °F 33.3 °F 27.0 °F 70% 30.17 in 10.0 mi SW 3.5 mph - N/A   Clear
2:53 AM 35.1 °F 32.2 °F 27.0 °F 72% 30.18 in 10.0 mi SW 3.5 mph - N/A   Clear
3:53 AM 36.0 °F 31.1 °F 27.0 °F 70% 30.17 in 10.0 mi SSW 5.8 mph - N/A   Clear
4:53 AM 36.0 °F 30.3 °F 27.0 °F 70% 30.18 in 10.0 mi WSW 6.9 mph - N/A   Clear
5:53 AM 36.0 °F 32.1 °F 26.1 °F 67% 30.18 in 10.0 mi SW 4.6 mph - N/A   Clear
6:53 AM 35.1 °F 32.2 °F 26.1 °F 70% 30.18 in 10.0 mi West 3.5 mph - N/A   Clear
7:53 AM 37.9 °F 32.7 °F 26.1 °F 62% 30.22 in 10.0 mi WSW 6.9 mph - N/A   Clear
8:53 AM 44.1 °F 39.0 °F 28.0 °F 53% 30.25 in 10.0 mi SW 9.2 mph - N/A   Clear
9:53 AM 50.0 °F - 26.1 °F 39% 30.25 in 10.0 mi SW 13.8 mph - N/A   Clear
10:53 AM 54.0 °F - 24.1 °F 31% 30.25 in 10.0 mi WSW 13.8 mph - N/A   Clear
11:53 AM 57.0 °F - 25.0 °F 29% 30.23 in 10.0 mi West 11.5 mph - N/A   Clear
12:53 PM 59.0 °F - 25.0 °F 27% 30.22 in 10.0 mi WSW 11.5 mph - N/A   Clear
1:53 PM 61.0 °F - 24.1 °F 24% 30.19 in 10.0 mi SW 9.2 mph - N/A   Clear
2:53 PM 62.1 °F - 23.0 °F 22% 30.17 in 10.0 mi SW 11.5 mph 17.3 mph N/A   Clear
3:53 PM 62.1 °F - 23.0 °F 22% 30.17 in 10.0 mi SW 10.4 mph - N/A   Clear
4:53 PM 61.0 °F - 25.0 °F 25% 30.17 in 10.0 mi SSW 13.8 mph - N/A   Clear
5:53 PM 59.0 °F - 24.1 °F 26% 30.17 in 10.0 mi SSW 13.8 mph - N/A   Clear
6:53 PM 55.0 °F - 26.1 °F 33% 30.20 in 10.0 mi SW 5.8 mph - N/A   Clear
7:53 PM 54.0 °F - 27.0 °F 35% 30.22 in 10.0 mi SW 9.2 mph - N/A   Clear
8:53 PM 52.0 °F - 28.0 °F 40% 30.24 in 10.0 mi SSW 6.9 mph - N/A   Clear
9:53 PM 50.0 °F - 27.0 °F 41% 30.25 in 10.0 mi SSW 3.5 mph - N/A   Clear
10:53 PM 48.9 °F - 27.0 °F 43% 30.26 in 10.0 mi Calm Calm - N/A   Clear
11:53 PM 41.0 °F 38.0 °F 28.9 °F 62% 30.28 in 10.0 mi SE 4.6 mph - N/A   Clear